Вернуться в каталог

STARLINK-37064

АктивенСвязьSSO
NORAD 68157·PAYLOAD·🇺🇸 United States

Запущен Mar 13, 2026 с Vandenberg Space Force Base

Loading…

Ближайшие Пролёты (ближайшие 24 часа)

TLE

СвежийSource: CelesTrak SupGP

Эпоха: Sep 15, 2026, 02:53 UTC

1 68157C 26049R   26258.12062500 -.00051535  00000+0 -15998-2 0  2589
2 68157  97.2836 278.1993 0001264  89.2215 124.4418 15.33465269    12

Отслеживайте STARLINK-37064 в реальном времени с AllMySat

Download on the App Store